Location: Vancouver
(49.2500°N, 123.1330°W)
Time: 21:36:52
(UTC-07:00)

SO-67 - Visible Passes

Search period start: 02 September 2014 00:00
Search period end: 12 September 2014 00:00
Orbit: 462 x 466 km, 97.2° (Epoch: 02 September)

Date Brightness Start Highest point End Pass type
(mag) Time Alt. Az. Time Alt. Az. Time Alt. Az.
03 Sep ? 20:23:34 10° SW 20:26:10 20° W 20:28:46 10° NW visible
06 Sep ? 20:24:26 10° SW 20:26:59 19° W 20:29:33 10° NW visible
09 Sep ? 20:25:10 10° SW 20:27:41 19° W 20:30:13 10° NW visible
